Location: Unspecified
(0.0000°N, 0.0000°E)
Time: 18:41:08
(UTC+01:00)

ARIANE DEB (SPELDA) - Visible Passes

Search period start: 31 January 2015 00:00
Search period end: 10 February 2015 00:00
Orbit: 341 x 33227 km, 3.3° (Epoch: 29 January)

Date Brightness Start Highest point End Pass type
(mag) Time Alt. Az. Time Alt. Az. Time Alt. Az.
01 Feb 7.3 03:11:19 79° W 03:17:12 88° N 12:02:02 10° E visible
03 Feb 7.5 03:55:30 59° W 04:21:54 87° N 12:48:51 10° E visible
03 Feb 8.5 23:25:09 12° E 23:25:09 12° E 07:35:28 10° E visible
05 Feb 7.2 04:39:38 42° W 13:16:55 89° N 13:35:00 10° E visible
06 Feb 8.2 00:09:16 25° E 00:09:16 25° E 08:34:05 10° E visible
07 Feb 6.6 05:23:43 27° W 14:08:40 89° S 14:20:41 10° E visible
08 Feb 8.0 00:53:19 41° E 00:53:19 41° E 09:26:47 10° E visible
08 Feb 2.3 19:43:51 10° WSW 19:46:17 40° S 19:48:39 10° ESE visible
09 Feb 6.1 06:07:43 14° W 14:57:40 86° S 15:06:00 10° E visible
